QPF
0.00 0.00 0.00 0.00 0.00 0.00 0.01 0.06 0.06 0.06 0.05 0.02 0.02 0.01 0.01 0.00 0.00 0.00 0.02 0.02 0.03 0.02 0.00 0.00 0.01 0.03 0.03 0.01 0.00 0.00 0.00 0.00 0.00 0.00 0.00 0.00 0.00 0.00 0.00 0.00 0.02 0.00 0.03
0.00 0.00 0.00 0.00 0.00 0.01 0.04 0.01 0.00 0.01 0.01 0.00 0.00 0.00 0.00 0.00 0.00 0.00 0.00 0.00 0.00 0.00 0.02 0.05 0.08 0.09 0.08 0.06 0.04 0.03 0.01 0.01 0.00 0.00 0.00 0.00 0.00 0.00 0.00 0.00 0.00 0.01 0.11
0.00 0.00 0.00 0.00 0.00 0.00 0.00 0.00 0.00 0.00 0.00 0.00 0.00 0.00 0.00 0.00 0.00 0.00 0.00 0.01 0.02 0.04 0.12 0.12 0.11 0.08 0.08 0.07 0.06 0.05 0.06 0.05 0.03 0.02 0.00 0.00 0.00 0.00 0.00 0.00 0.00 0.00 0.01
0.00 0.00 0.00 0.00 0.00 0.00 0.00 0.00 0.00 0.00 0.00 0.00 0.00 0.00 0.00 0.00 0.00 0.00 0.00 0.00 0.00 0.00 0.01 0.02 0.02 0.02 0.02 0.03 0.04 0.10 0.11 0.09 0.08 0.06 0.03 0.01 0.00 0.00 0.00 0.00 0.00 0.00 0.00
0.00 0.00 0.00 0.00 0.00 0.00 0.00 0.00 0.00 0.00 0.00 0.00 0.00 0.00 0.00 0.00 0.00 0.00 0.00 0.00 0.00 0.00 0.00 0.00 0.00 0.00 0.00 0.00 0.00 0.02 0.05 0.08 0.10 0.09 0.07 0.04 0.02 0.00 0.00 0.01 0.00 0.00 0.00
0.00 0.00 0.00 0.00 0.00 0.00 0.00 0.00 0.00 0.00 0.00 0.00 0.00 0.00 0.00 0.00 0.00 0.00 0.00 0.00 0.00 0.00 0.00 0.00 0.00 0.00 0.00 0.00 0.00 0.00 0.00 0.00 0.02 0.01 0.02 0.03 0.02 0.01 0.01 0.01 0.00 0.00 0.00
0.00 0.00 0.00 0.00 0.00 0.00 0.00 0.00 0.00 0.00 0.00 0.00 0.00 0.00 0.00 0.00 0.00 0.00 0.00 0.00 0.00 0.00 0.00 0.00 0.00 0.00 0.00 0.00 0.00 0.00 0.00 0.00 0.00 0.00 0.00 0.00 0.00 0.00 0.00 0.00 0.00 0.00 0.00
0.00 0.00 0.00 0.00 0.00 0.00 0.00 0.00 0.00 0.00 0.00 0.00 0.00 0.00 0.00 0.00 0.00 0.00 0.00 0.00 0.00 0.00 0.00 0.00 0.00 0.00 0.00 0.00 0.00 0.00 0.00 0.00 0.00 0.00 0.01 0.01 0.01 0.00 0.01 0.01 0.00 0.00 0.00
0.00 0.00 0.00 0.00 0.00 0.00 0.00 0.00 0.00 0.00 0.00 0.00 0.00 0.00 0.00 0.00 0.00 0.00 0.00 0.00 0.00 0.00 0.00 0.00 0.00 0.00 0.00 0.00 0.00 0.00 0.00 0.00 0.00 0.00 0.00 0.00 0.00 0.00 0.00 0.00 0.00 0.00 0.00
0.00 0.00 0.00 0.00 0.00 0.00 0.00 0.00 0.00 0.00 0.00 0.00 0.00 0.00 0.00 0.00 0.00 0.00 0.00 0.00 0.00 0.00 0.00 0.00 0.00 0.00 0.00 0.00 0.00 0.00 0.00 0.00 0.00 0.01 0.01 0.01 0.01 0.02 0.01 0.00 0.02 0.02 0.02
0.00 0.00 0.00 0.00 0.00 0.00 0.00 0.00 0.00 0.00 0.00 0.00 0.00 0.00 0.00 0.00 0.00 0.00 0.00 0.00 0.00 0.00 0.00 0.00 0.00 0.00 0.00 0.00 0.00 0.00 0.00 0.00 0.01 0.02 0.03 0.04 0.04 0.06 0.11 0.09 0.10 0.11 0.10
0.00 0.00 0.00 0.00 0.00 0.00 0.00 0.00 0.00 0.00 0.00 0.00 0.00 0.00 0.00 0.00 0.00 0.00 0.00 0.00 0.00 0.00 0.00 0.00 0.00 0.00 0.00 0.00 0.00 0.00 0.00 0.00 0.00 0.01 0.01 0.00 0.00 0.00 0.01 0.02 0.01 0.02 0.01
0.00 0.00 0.00 0.00 0.00 0.00 0.00 0.00 0.00 0.00 0.00 0.00 0.00 0.00 0.00 0.00 0.00 0.00 0.00 0.00 0.00 0.00 0.00 0.00 0.00 0.00 0.00 0.00 0.00 0.00 0.00 0.00 0.00 0.00 0.00 0.00 0.00 0.00 0.00 0.00 0.00 0.00 0.00
0.00 0.00 0.00 0.00 0.00 0.00 0.00 0.00 0.00 0.00 0.00 0.00 0.00 0.00 0.00 0.00 0.00 0.00 0.00 0.00 0.00 0.00 0.00 0.00 0.00 0.00 0.00 0.00 0.00 0.00 0.00 0.00 0.00 0.00 0.00 0.00 0.00 0.00 0.00 0.00 0.00 0.00 0.00
0.00 0.00 0.00 0.00 0.00 0.00 0.00 0.00 0.00 0.00 0.00 0.00 0.00 0.00 0.00 0.00 0.00 0.00 0.00 0.00 0.00 0.00 0.00 0.00 0.00 0.00 0.00 0.00 0.00 0.00 0.00 0.00 0.00 0.00 0.00 0.00 0.00 0.00 0.00 0.00 0.00 0.00 0.00
0.00 0.00 0.00 0.00 0.00 0.00 0.00 0.00 0.00 0.00 0.00 0.00 0.00 0.00 0.00 0.00 0.00 0.00 0.00 0.00 0.00 0.00 0.00 0.00 0.00 0.00 0.00 0.00 0.00 0.00 0.00 0.00 0.00 0.00 0.00 0.00 0.00 0.00 0.00 0.00 0.00 0.00 0.00
0.00 0.00 0.00 0.00 0.00 0.00 0.00 0.00 0.00 0.00 0.00 0.00 0.00 0.00 0.00 0.00 0.00 0.00 0.00 0.00 0.00 0.00 0.00 0.00 0.00 0.00 0.00 0.00 0.00 0.00 0.00 0.00 0.00 0.00 0.00 0.00 0.00 0.00 0.00 0.00 0.00 0.00 0.00
0.00 0.00 0.00 0.00 0.00 0.00 0.00 0.00 0.00 0.00 0.00 0.00 0.00 0.00 0.00 0.00 0.00 0.00 0.00 0.00 0.00 0.00 0.00 0.00 0.00 0.00 0.00 0.00 0.00 0.00 0.00 0.00 0.00 0.00 0.00 0.00 0.00 0.00 0.00 0.00 0.00 0.00 0.00
0.00 0.00 0.00 0.00 0.00 0.00 0.00 0.00 0.00 0.00 0.00 0.00 0.00 0.00 0.00 0.00 0.00 0.00 0.00 0.00 0.00 0.00 0.00 0.00 0.00 0.00 0.00 0.00 0.00 0.00 0.00 0.00 0.00 0.00 0.00 0.00 0.00 0.00 0.00 0.00 0.00 0.00 0.00
0.00 0.00 0.00 0.00 0.00 0.00 0.00 0.00 0.00 0.00 0.00 0.00 0.00 0.00 0.00 0.00 0.00 0.00 0.00 0.00 0.00 0.00 0.00 0.00 0.00 0.00 0.00 0.00 0.00 0.00 0.00 0.00 0.00 0.00 0.00 0.00 0.00 0.00 0.00 0.00 0.00 0.00 0.00
0.00 0.00 0.00 0.00 0.00 0.00 0.00 0.00 0.00 0.00 0.00 0.00 0.00 0.00 0.00 0.00 0.00 0.00 0.00 0.00 0.00 0.00 0.00 0.00 0.00 0.00 0.00 0.00 0.00 0.00 0.00 0.00 0.00 0.00 0.00 0.00 0.00 0.00 0.00 0.00 0.00 0.00 0.00
0.00 0.00 0.00 0.00 0.00 0.00 0.00 0.00 0.00 0.00 0.00 0.00 0.00 0.00 0.00 0.00 0.00 0.00 0.00 0.00 0.00 0.00 0.00 0.00 0.00 0.00 0.00 0.00 0.00 0.00 0.00 0.00 0.00 0.00 0.00 0.00 0.00 0.00 0.00 0.00 0.00 0.00 0.00
0.00 0.00 0.00 0.00 0.00 0.00 0.00 0.00 0.00 0.00 0.00 0.00 0.00 0.00 0.00 0.00 0.00 0.00 0.00 0.00 0.00 0.00 0.00 0.00 0.00 0.00 0.00 0.00 0.00 0.00 0.00 0.00 0.00 0.00 0.00 0.00 0.00 0.00 0.00 0.00 0.00 0.00 0.00
0.00 0.00 0.00 0.00 0.00 0.00 0.00 0.00 0.00 0.00 0.00 0.00 0.00 0.00 0.00 0.00 0.00 0.00 0.00 0.00 0.00 0.00 0.00 0.00 0.00 0.00 0.00 0.00 0.00 0.00 0.00 0.00 0.00 0.00 0.00 0.00 0.00 0.00 0.00 0.00 0.00 0.00 0.00
0.00 0.00 0.00 0.00 0.00 0.00 0.00 0.00 0.00 0.00 0.00 0.00 0.00 0.00 0.00 0.00 0.00 0.00 0.00 0.00 0.00 0.00 0.00 0.00 0.00 0.00 0.00 0.00 0.00 0.00 0.00 0.00 0.00 0.00 0.00 0.00 0.00 0.00 0.00 0.00 0.00 0.00 0.00
0.00 0.00 0.00 0.00 0.00 0.00 0.00 0.00 0.00 0.00 0.00 0.00 0.00 0.00 0.00 0.00 0.00 0.00 0.00 0.00 0.00 0.00 0.00 0.00 0.00 0.00 0.00 0.00 0.00 0.00 0.00 0.00 0.00 0.00 0.00 0.00 0.00 0.00 0.00 0.00 0.00 0.00 0.00
MSLP
1010.83 1010.96 1011.48 1012.01 1012.43 1013.00 1013.09 1013.49 1014.38 1014.42 1014.76 1015.00 1015.11 1015.03 1014.98 1014.90 1014.95 1014.96 1014.93 1014.82 1014.79 1014.63 1014.36 1014.36 1014.35 1014.41 1014.27 1013.65 1013.69 1013.64 1013.48 1013.56 1013.24 1011.96 1011.31 1011.66 1012.15 1012.09 1011.83 1011.58 1011.44 1011.18 1011.11
1010.69 1011.56 1011.96 1012.33 1012.66 1013.45 1014.22 1014.94 1015.33 1015.52 1015.58 1015.70 1015.55 1015.41 1015.36 1015.32 1015.29 1015.17 1014.99 1014.87 1014.60 1014.34 1014.33 1014.67 1014.70 1014.82 1014.65 1014.47 1014.23 1013.79 1013.39 1013.09 1012.76 1012.48 1012.19 1012.25 1012.09 1012.37 1012.45 1012.35 1011.82 1011.55 1011.97
1011.52 1011.62 1012.12 1013.41 1014.31 1015.17 1015.64 1016.08 1016.24 1016.29 1016.30 1016.26 1016.27 1016.18 1016.26 1016.11 1016.04 1015.64 1015.51 1015.52 1015.54 1015.43 1015.40 1015.35 1015.38 1015.31 1015.11 1014.72 1014.30 1013.83 1013.59 1013.44 1013.32 1013.02 1012.58 1011.85 1012.10 1012.51 1012.49 1012.20 1012.16 1012.21 1011.65
1011.68 1012.72 1013.65 1014.56 1015.30 1015.80 1016.39 1016.81 1016.90 1016.92 1016.84 1016.78 1016.86 1016.81 1016.74 1016.74 1016.59 1016.60 1016.34 1016.09 1016.05 1015.99 1016.06 1016.07 1016.37 1016.39 1016.24 1015.80 1015.11 1014.63 1014.36 1014.05 1013.62 1013.47 1013.34 1013.12 1012.43 1012.43 1013.02 1012.95 1012.65 1012.95 1013.32
1013.20 1014.18 1014.93 1015.47 1015.95 1016.58 1017.13 1017.33 1017.50 1017.52 1017.57 1017.60 1017.44 1017.34 1017.37 1017.42 1017.53 1017.05 1016.78 1016.88 1016.89 1016.89 1016.68 1016.53 1017.03 1017.13 1017.08 1016.73 1016.07 1015.66 1015.19 1014.60 1014.31 1014.10 1013.96 1013.79 1013.88 1013.67 1014.16 1014.39 1013.98 1014.02 1014.34
1014.23 1014.96 1015.77 1016.41 1017.01 1017.27 1017.49 1017.62 1017.80 1017.95 1017.97 1017.80 1017.84 1018.04 1018.19 1018.44 1018.40 1017.90 1017.51 1017.57 1017.68 1017.62 1017.43 1016.98 1016.89 1017.15 1017.07 1016.91 1016.78 1016.54 1016.27 1015.61 1015.33 1015.24 1015.41 1015.29 1015.61 1015.60 1015.61 1015.68 1015.32 1014.93 1014.47
1015.08 1015.69 1016.35 1016.90 1017.21 1017.33 1017.55 1017.79 1017.96 1018.22 1018.63 1018.63 1018.47 1018.73 1019.00 1019.20 1019.15 1018.71 1018.58 1018.11 1018.04 1017.89 1017.87 1017.75 1017.60 1017.65 1017.52 1017.07 1016.76 1016.54 1016.35 1016.39 1016.21 1015.84 1015.89 1016.08 1016.16 1016.32 1016.30 1016.08 1015.82 1015.60 1015.10
1015.50 1015.98 1016.48 1016.75 1017.13 1017.47 1017.72 1017.97 1018.14 1018.35 1018.50 1018.56 1018.92 1019.18 1019.31 1019.56 1019.50 1019.16 1018.60 1018.31 1018.47 1018.60 1018.60 1018.47 1018.30 1018.32 1018.31 1017.90 1017.27 1016.81 1016.58 1016.80 1016.83 1016.53 1016.50 1016.48 1016.34 1016.38 1016.13 1015.88 1015.65 1015.43 1014.84
1015.71 1016.12 1016.41 1016.79 1017.19 1017.61 1017.82 1018.03 1018.25 1018.41 1018.60 1018.76 1019.02 1019.19 1019.53 1019.91 1019.62 1019.18 1018.61 1017.84 1017.96 1018.78 1019.11 1019.43 1019.12 1018.95 1018.82 1018.19 1017.46 1016.97 1016.71 1016.53 1016.91 1017.02 1016.96 1016.86 1016.75 1016.68 1016.55 1016.02 1015.49 1015.16 1014.32
1015.87 1016.29 1016.68 1017.08 1017.49 1017.88 1018.23 1018.45 1018.59 1018.59 1018.71 1019.05 1019.55 1019.82 1020.09 1020.31 1020.31 1019.75 1019.10 1017.76 1018.53 1018.46 1019.15 1019.53 1019.85 1019.63 1019.19 1018.57 1017.89 1017.38 1017.03 1016.81 1016.58 1016.13 1016.35 1016.32 1016.26 1016.30 1016.46 1016.08 1015.66 1015.28 1015.12
1016.28 1016.72 1017.18 1017.66 1018.11 1018.46 1018.64 1018.77 1018.84 1018.92 1019.26 1019.48 1019.78 1020.19 1020.65 1020.97 1021.20 1020.60 1020.03 1019.29 1018.74 1018.44 1018.77 1019.27 1019.87 1019.96 1019.56 1019.04 1018.49 1018.05 1017.62 1017.19 1016.45 1016.45 1016.34 1016.11 1015.91 1015.93 1016.45 1016.32 1016.15 1016.13 1015.85
1016.62 1017.13 1017.68 1018.04 1018.16 1018.70 1018.94 1019.16 1019.29 1019.34 1019.35 1019.50 1019.64 1019.81 1020.83 1021.39 1021.25 1021.28 1020.80 1020.53 1019.99 1019.73 1019.71 1019.97 1019.84 1019.80 1019.66 1019.14 1018.68 1018.24 1017.49 1016.50 1015.98 1015.88 1016.38 1016.30 1015.98 1015.90 1016.07 1016.29 1016.30 1016.15 1016.03
1016.82 1017.38 1017.82 1018.22 1018.55 1018.81 1019.01 1019.15 1019.15 1018.95 1018.95 1019.03 1019.25 1019.61 1020.11 1020.83 1021.44 1021.18 1020.90 1020.65 1020.78 1020.26 1020.04 1019.97 1019.74 1019.33 1019.12 1018.89 1018.51 1017.98 1017.51 1017.26 1016.70 1016.19 1015.84 1015.61 1015.81 1015.65 1015.70 1015.43 1015.54 1015.50 1015.65
1016.69 1017.30 1017.79 1018.12 1018.50 1018.80 1018.64 1018.53 1018.64 1019.04 1019.37 1019.56 1019.68 1019.91 1020.38 1020.67 1020.94 1021.04 1021.15 1020.91 1020.74 1020.68 1020.43 1019.59 1019.38 1019.21 1018.92 1018.59 1018.05 1017.76 1017.49 1017.37 1017.07 1016.76 1016.29 1015.76 1015.48 1015.21 1015.04 1014.82 1014.62 1014.29 1013.94
1016.41 1016.89 1017.28 1017.75 1018.11 1018.42 1018.91 1019.38 1019.60 1020.91 1020.83 1020.48 1020.42 1020.22 1020.76 1021.68 1022.80 1023.11 1022.99 1022.45 1022.06 1021.67 1021.08 1019.41 1018.94 1018.79 1018.55 1018.43 1018.20 1018.02 1017.76 1017.65 1017.53 1017.30 1017.18 1016.77 1016.31 1016.12 1015.79 1015.60 1014.88 1014.70 1014.28
1015.80 1016.27 1016.55 1016.89 1017.60 1017.91 1018.96 1019.95 1020.99 1021.94 1022.20 1022.31 1022.17 1021.96 1022.17 1022.61 1023.12 1023.38 1023.22 1023.00 1022.50 1022.29 1021.17 1019.48 1019.14 1018.98 1018.81 1018.68 1018.43 1018.28 1018.21 1018.14 1018.19 1017.88 1017.38 1016.91 1016.61 1016.31 1016.17 1015.90 1015.89 1015.59 1015.25
1014.97 1015.48 1015.92 1016.23 1016.69 1017.70 1018.40 1019.38 1020.57 1022.12 1022.29 1022.36 1022.47 1022.61 1022.83 1023.14 1023.17 1023.14 1022.98 1022.86 1022.31 1022.09 1020.31 1019.60 1019.44 1019.30 1019.21 1019.20 1019.05 1018.92 1018.76 1018.68 1018.81 1018.56 1018.14 1017.53 1017.13 1016.70 1016.35 1016.05 1015.68 1015.24 1015.29
1014.53 1015.35 1015.53 1015.46 1016.04 1016.86 1017.49 1018.10 1018.90 1020.18 1020.89 1021.76 1022.69 1022.85 1022.75 1022.76 1023.02 1022.95 1022.58 1022.35 1021.03 1021.40 1020.03 1019.75 1019.62 1019.51 1019.48 1019.57 1019.55 1019.41 1019.32 1018.95 1018.99 1018.92 1018.50 1018.08 1017.73 1017.30 1016.80 1016.42 1016.05 1015.77 1015.58
1014.14 1014.84 1014.77 1014.93 1015.46 1016.16 1016.69 1017.22 1017.53 1018.08 1018.54 1019.49 1020.90 1022.34 1022.60 1022.16 1022.26 1022.47 1022.30 1021.76 1020.44 1020.15 1019.97 1019.89 1019.90 1019.88 1019.88 1019.99 1019.89 1019.75 1019.66 1019.26 1019.22 1019.16 1018.80 1018.51 1017.85 1017.51 1017.54 1017.57 1017.40 1017.22 1016.60
1013.65 1014.16 1014.30 1014.53 1015.35 1015.99 1016.30 1016.65 1016.95 1017.33 1017.88 1018.34 1018.91 1019.32 1020.69 1021.18 1021.35 1021.16 1020.96 1020.36 1020.14 1019.87 1019.96 1020.02 1020.10 1020.16 1020.15 1020.24 1020.18 1019.97 1019.60 1019.38 1019.30 1019.30 1019.19 1018.77 1018.71 1018.51 1018.49 1018.41 1017.81 1017.33 1016.83
1012.95 1013.96 1014.25 1014.19 1014.79 1015.44 1015.74 1016.23 1016.30 1016.64 1017.01 1017.30 1017.82 1018.87 1019.67 1020.05 1019.55 1019.66 1019.83 1019.76 1019.68 1019.73 1019.87 1020.13 1020.30 1020.28 1020.17 1020.20 1020.25 1020.09 1019.86 1019.72 1019.66 1019.74 1019.43 1019.21 1019.44 1018.98 1019.27 1018.71 1017.77 1017.25 1016.56
1012.31 1013.03 1014.05 1014.06 1014.96 1015.18 1015.43 1015.47 1015.66 1015.89 1016.32 1016.55 1017.17 1018.68 1019.26 1019.58 1019.16 1018.72 1019.19 1019.39 1019.36 1019.57 1019.49 1019.93 1020.14 1020.17 1020.26 1020.50 1020.24 1019.99 1020.02 1019.96 1020.02 1020.16 1020.11 1019.87 1019.60 1019.02 1018.94 1018.45 1017.70 1017.05 1016.40
1011.21 1011.82 1012.84 1013.35 1013.97 1014.51 1014.73 1014.83 1015.27 1015.64 1015.91 1016.17 1016.68 1017.74 1018.48 1018.37 1018.13 1018.32 1018.69 1018.86 1019.17 1019.42 1019.43 1019.80 1020.10 1020.06 1020.34 1020.54 1020.21 1020.12 1020.18 1020.61 1020.98 1020.81 1020.43 1020.12 1019.68 1019.32 1018.89 1018.48 1017.84 1016.97 1016.42
1010.51 1011.09 1011.78 1012.41 1012.87 1013.67 1014.34 1014.61 1014.85 1015.51 1015.53 1015.73 1016.24 1016.58 1016.92 1017.34 1017.62 1017.86 1018.58 1018.68 1019.10 1019.22 1019.33 1019.68 1019.97 1020.22 1020.61 1020.64 1020.42 1020.29 1021.40 1021.90 1021.66 1021.09 1021.14 1020.50 1019.73 1019.35 1019.02 1018.40 1017.91 1016.82 1016.62
1009.88 1010.65 1011.67 1012.27 1012.90 1013.63 1014.10 1014.27 1014.55 1015.04 1015.49 1015.55 1015.88 1016.13 1016.53 1017.07 1017.45 1017.80 1018.02 1018.31 1018.84 1018.99 1019.16 1019.61 1019.73 1020.15 1020.32 1020.76 1020.61 1021.17 1022.46 1022.55 1022.25 1022.33 1021.21 1020.58 1019.85 1019.32 1018.80 1018.23 1017.41 1017.06 1016.60
1009.72 1010.62 1010.40 1011.51 1013.05 1013.58 1013.64 1014.20 1014.30 1014.83 1015.23 1015.62 1015.87 1016.00 1016.40 1016.82 1017.18 1017.49 1017.86 1018.23 1018.67 1018.83 1019.27 1019.42 1019.75 1020.11 1020.36 1020.32 1021.36 1022.13 1022.37 1022.45 1022.17 1022.33 1021.84 1020.48 1019.47 1018.71 1018.51 1017.93 1017.46 1017.09 1016.39
Thickness
5838 5838 5833 5829 5826 5821 5819 5815 5806 5806 5800 5796 5793 5791 5790 5788 5784 5780 5777 5775 5772 5771 5770 5766 5763 5762 5759 5762 5759 5756 5752 5746 5739 5753 5761 5759 5753 5751 5752 5754 5754 5753 5757
5841 5834 5830 5828 5825 5817 5808 5802 5798 5794 5792 5788 5787 5786 5784 5782 5779 5776 5774 5773 5771 5769 5767 5761 5757 5755 5753 5753 5751 5751 5751 5752 5748 5741 5746 5745 5745 5743 5740 5738 5741 5740 5739
5835 5833 5828 5817 5809 5800 5796 5791 5788 5786 5783 5782 5780 5778 5774 5773 5771 5771 5768 5764 5760 5758 5756 5753 5750 5748 5746 5747 5748 5749 5748 5746 5743 5739 5737 5745 5741 5736 5732 5733 5730 5727 5728
5834 5824 5815 5807 5800 5795 5789 5783 5780 5779 5777 5776 5773 5770 5768 5765 5763 5759 5758 5757 5754 5752 5749 5746 5740 5736 5734 5735 5737 5736 5736 5734 5736 5731 5726 5723 5729 5730 5721 5715 5717 5714 5705
5821 5812 5805 5801 5796 5789 5781 5778 5774 5772 5769 5766 5764 5762 5759 5755 5750 5751 5751 5746 5743 5740 5740 5739 5731 5727 5724 5724 5725 5724 5723 5724 5721 5717 5714 5710 5704 5703 5697 5695 5696 5695 5692
5812 5804 5797 5790 5784 5780 5777 5774 5771 5767 5764 5762 5757 5752 5747 5742 5738 5741 5742 5738 5733 5730 5728 5731 5729 5723 5720 5716 5714 5711 5708 5708 5703 5697 5690 5685 5679 5677 5674 5670 5673 5675 5677
5803 5797 5791 5786 5781 5779 5776 5772 5767 5762 5755 5751 5748 5742 5736 5731 5727 5728 5727 5729 5726 5724 5721 5719 5717 5714 5711 5711 5708 5704 5699 5692 5688 5686 5678 5671 5666 5662 5659 5655 5654 5654 5657
5798 5794 5789 5786 5781 5777 5772 5767 5763 5758 5752 5747 5740 5735 5730 5724 5720 5720 5721 5723 5718 5713 5710 5708 5705 5702 5696 5695 5694 5690 5686 5679 5675 5672 5666 5662 5659 5655 5653 5651 5648 5647 5650
5796 5792 5790 5786 5779 5774 5768 5764 5759 5754 5748 5742 5737 5731 5724 5718 5716 5716 5719 5724 5718 5707 5701 5694 5693 5690 5685 5683 5683 5679 5676 5673 5665 5660 5655 5651 5648 5644 5641 5642 5642 5640 5644
5795 5791 5787 5781 5775 5768 5763 5758 5753 5749 5743 5737 5728 5723 5716 5712 5708 5709 5711 5721 5707 5705 5696 5688 5679 5676 5674 5674 5674 5671 5667 5664 5661 5660 5655 5649 5644 5638 5634 5633 5633 5630 5628
5791 5786 5780 5774 5767 5761 5756 5751 5746 5741 5734 5728 5722 5715 5709 5705 5701 5700 5700 5703 5702 5699 5692 5683 5674 5666 5663 5662 5662 5660 5657 5654 5655 5650 5646 5642 5639 5634 5624 5620 5618 5614 5613
5785 5778 5771 5766 5763 5755 5748 5743 5737 5732 5728 5722 5717 5712 5702 5697 5693 5691 5690 5687 5687 5683 5677 5671 5667 5660 5656 5655 5654 5650 5649 5652 5651 5645 5634 5628 5628 5624 5618 5609 5605 5603 5600
5779 5771 5766 5761 5755 5748 5742 5736 5733 5732 5729 5724 5718 5711 5705 5698 5691 5686 5683 5680 5675 5674 5670 5663 5659 5657 5653 5650 5647 5644 5642 5637 5634 5631 5629 5626 5619 5615 5607 5606 5600 5594 5590
5775 5768 5762 5757 5749 5743 5741 5740 5735 5730 5724 5717 5711 5705 5698 5694 5690 5687 5682 5678 5673 5667 5662 5663 5656 5651 5648 5644 5644 5640 5635 5629 5623 5617 5614 5614 5611 5606 5600 5598 5591 5590 5588
5775 5769 5763 5755 5749 5741 5735 5728 5726 5713 5711 5712 5706 5702 5693 5681 5670 5663 5660 5661 5658 5654 5649 5657 5652 5646 5642 5636 5632 5627 5623 5617 5609 5603 5596 5591 5587 5582 5578 5575 5577 5573 5570
5777 5771 5765 5759 5748 5744 5731 5721 5709 5703 5697 5692 5687 5685 5679 5669 5660 5653 5651 5647 5645 5641 5644 5647 5641 5636 5631 5626 5621 5615 5609 5601 5592 5586 5581 5576 5571 5567 5561 5559 5553 5551 5548
5780 5774 5767 5760 5753 5739 5731 5721 5709 5696 5689 5683 5676 5671 5665 5659 5651 5647 5644 5642 5641 5634 5644 5640 5632 5626 5620 5614 5608 5601 5593 5586 5575 5566 5560 5558 5554 5551 5548 5545 5543 5543 5537
5781 5771 5767 5763 5754 5742 5733 5726 5718 5703 5693 5682 5670 5664 5659 5654 5647 5643 5642 5639 5647 5636 5638 5630 5622 5617 5611 5603 5595 5587 5578 5572 5561 5552 5547 5543 5538 5535 5533 5531 5529 5527 5524
5779 5770 5767 5762 5753 5743 5734 5726 5720 5712 5703 5691 5677 5660 5654 5652 5645 5639 5636 5636 5639 5634 5627 5620 5614 5607 5600 5592 5585 5576 5566 5559 5550 5541 5536 5530 5529 5525 5518 5512 5508 5503 5505
5778 5770 5767 5761 5750 5738 5731 5723 5715 5707 5698 5689 5682 5676 5662 5653 5649 5648 5645 5640 5632 5627 5619 5612 5605 5598 5590 5582 5573 5564 5557 5549 5541 5532 5524 5521 5514 5509 5503 5497 5498 5497 5497
5778 5767 5762 5759 5749 5738 5731 5720 5715 5707 5696 5690 5684 5669 5655 5649 5650 5644 5636 5632 5627 5620 5612 5604 5596 5590 5583 5574 5563 5554 5546 5538 5530 5521 5516 5511 5502 5499 5491 5491 5493 5492 5494
5778 5769 5757 5754 5740 5734 5726 5721 5714 5705 5695 5688 5678 5663 5651 5646 5645 5644 5635 5627 5621 5614 5609 5599 5591 5582 5573 5562 5555 5548 5538 5530 5521 5511 5504 5499 5495 5494 5489 5487 5488 5489 5490
5780 5773 5762 5752 5744 5731 5725 5719 5708 5698 5691 5684 5674 5662 5653 5649 5646 5641 5632 5624 5615 5608 5602 5593 5583 5575 5565 5554 5547 5539 5530 5519 5508 5500 5497 5493 5490 5487 5484 5482 5482 5485 5485
5779 5771 5761 5753 5746 5731 5719 5711 5705 5690 5686 5680 5670 5664 5656 5649 5643 5637 5626 5618 5609 5603 5597 5588 5577 5567 5555 5545 5538 5531 5515 5504 5498 5494 5487 5485 5486 5482 5478 5477 5476 5480 5477
5774 5764 5751 5744 5737 5722 5712 5706 5700 5688 5679 5673 5666 5661 5654 5645 5638 5630 5623 5614 5604 5599 5591 5581 5572 5560 5551 5538 5530 5519 5506 5497 5490 5484 5482 5480 5479 5478 5476 5475 5476 5473 5472
5767 5756 5752 5743 5724 5712 5707 5697 5691 5681 5673 5666 5659 5655 5647 5640 5633 5626 5617 5608 5599 5593 5584 5576 5566 5554 5543 5535 5521 5509 5501 5493 5486 5480 5475 5477 5478 5479 5474 5473 5471 5468 5469